DL4NBA-1 Weather Reports


Display with metric or nautical units.
time (UTC)temp
F
wind
direction
speed
MPH
gust
MPH
rain 1hr
in
rain 24hr
in
rain mn
in
humidity
%
barometer
mb
20260906161130 72 38 4.0 4.0 0.00 0.00 0.00
20260906160631 72 1 5.0 6.0 0.00 0.00 0.00
20260906160128 72 32 5.0 3.0 0.00 0.00 0.00
20260906155629 72 30 6.0 6.0 0.00 0.00 0.00
20260906155130 72 39 4.0 5.0 0.00 0.00 0.00
20260906154631 72 45 5.0 5.0 0.00 0.00 0.00
20260906154132 72 68 4.0 3.0 0.00 0.00 0.00
20260906153630 73 27 5.0 4.0 0.00 0.00 0.00
20260906153131 73 31 5.0 5.0 0.00 0.00 0.00
20260906152133 73 28 5.0 4.0 0.00 0.00 0.00
20260906151634 77 1 0.0 0.0 0.00 0.00 0.00
20260906151131 77 45 5.0 6.0 0.00 0.00 0.00
20260906150632 77 45 6.0 7.0 0.00 0.00 0.00
20260906150133 74 343 4.0 4.0 0.00 0.00 0.00
20260906144131 78 62 9.0 7.0 0.00 0.00 0.00
20260906143632 76 86 4.0 7.0 0.00 0.00 0.00
20260906143133 77 101 4.0 3.0 0.00 0.00 0.00
20260906141633 77 45 3.0 2.0 0.00 0.00 0.00
20260906141134 76 35 4.0 5.0 0.00 0.00 0.00
20260906135135 75 311 6.0 4.0 0.00 0.00 0.00
20260906134137 78 52 3.0 6.0 0.00 0.00 0.00
20260906133638 77 148 3.0 2.0 0.00 0.00 0.00
20260906133135 76 34 6.0 5.0 0.00 0.00 0.00
20260906132636 76 39 4.0 3.0 0.00 0.00 0.00
20260906131637 74 352 4.0 3.0 0.00 0.00 0.00
20260906130637 74 27 5.0 5.0 0.00 0.00 0.00
20260906130138 74 231 2.0 4.0 0.00 0.00 0.00
20260906125638 74 17 4.0 3.0 0.00 0.00 0.00
20260906123639 72 1 2.0 4.0 0.00 0.00 0.00
20260906122641 76 23 2.0 2.0 0.00 0.00 0.00
20260906121639 72 23 3.0 1.0 0.00 0.00 0.00
20260906120642 74 27 2.0 1.0 0.00 0.00 0.00
20260906114641 72 346 2.0 3.0 0.00 0.00 0.00
20260906113643 71 48 3.0 2.0 0.00 0.00 0.00
20260906112639 71 319 1.0 2.0 0.00 0.00 0.00
20260906111641 73 115 3.0 5.0 0.00 0.00 0.00
20260906110644 72 44 3.0 5.0 0.00 0.00 0.00
20260906105640 69 8 0.0 2.0 0.00 0.00 0.00
20260906103640 68 340 3.0 3.0 0.00 0.00 0.00
20260906101645 70 65 2.0 0.0 0.00 0.00 0.00
20260906100645 68 25 4.0 3.0 0.00 0.00 0.00
20260906100146 68 42 6.0 3.0 0.00 0.00 0.00
20260906095647 66 18 3.0 0.0 0.00 0.00 0.00
20260906095149 68 62 3.0 3.0 0.00 0.00 0.00
20260906094729 67 46 1.0 4.0 0.00 0.00 0.00
20260906094646 67 46 1.0 4.0 0.00 0.00 0.00
20260906094148 69 62 4.0 2.0 0.00 0.00 0.00
20260906093649 65 56 1.0 3.0 0.00 0.00 0.00
20260906093150 67 350 6.0 5.0 0.00 0.00 0.00
20260906092652 65 288 2.0 1.0 0.00 0.00 0.00
20260906092151 64 304 3.0 3.0 0.00 0.00 0.00
20260906091153 66 34 7.0 3.0 0.00 0.00 0.00
20260906085654 66 55 4.0 4.0 0.00 0.00 0.00
20260906085155 64 17 3.0 2.0 0.00 0.00 0.00
20260906084655 64 48 4.0 4.0 0.00 0.00 0.00
20260906084157 62 20 4.0 2.0 0.00 0.00 0.00
20260906083658 62 354 0.0 2.0 0.00 0.00 0.00
20260906083156 62 318 3.0 3.0 0.00 0.00 0.00
20260906082657 63 343 3.0 4.0 0.00 0.00 0.00
20260906082159 63 42 4.0 3.0 0.00 0.00 0.00
20260906081700 62 83 6.0 4.0 0.00 0.00 0.00
20260906080659 62 31 1.0 6.0 0.00 0.00 0.00
20260906080200 62 32 2.0 3.0 0.00 0.00 0.00
20260906074704 62 28 6.0 7.0 0.00 0.00 0.00
20260906072205 61 120 3.0 3.0 0.00 0.00 0.00
20260906071704 59 59 0.0 3.0 0.00 0.00 0.00
20260906071205 59 65 0.0 3.0 0.00 0.00 0.00
20260906070707 59 27 0.0 0.0 0.00 0.00 0.00
20260906065207 57 30 0.0 0.0 0.00 0.00 0.00
20260906064210 57 333 0.0 0.0 0.00 0.00 0.00
20260906063213 54 333 0.0 0.0 0.00 0.00 0.00
20260906062212 53 203 0.0 0.0 0.00 0.00 0.00
20260906061714 52 203 0.0 0.0 0.00 0.00 0.00
20260906060716 51 197 2.0 3.0 0.00 0.00 0.00
20260906060215 51 153 0.0 0.0 0.00 0.00 0.00
20260906055716 51 153 0.0 0.0 0.00 0.00 0.00
20260906055218 50 153 0.0 0.0 0.00 0.00 0.00
20260906054719 50 153 0.0 0.0 0.00 0.00 0.00
20260906054221 49 205 1.0 1.0 0.00 0.00 0.00
20260906053720 50 184 2.0 1.0 0.00 0.00 0.00
20260906051725 48 176 0.0 0.0 0.00 0.00 0.00
20260906050725 48 176 0.0 0.0 0.00 0.00 0.00
20260906045728 50 186 1.0 1.0 0.00 0.00 0.00
20260906045229 50 113 0.0 0.0 0.00 0.00 0.00
20260906044726 49 113 0.0 0.0 0.00 0.00 0.00
20260906044227 47 142 1.0 0.0 0.00 0.00 0.00
20260906043726 47 170 0.0 1.0 0.00 0.00 0.00
20260906042729 48 308 2.0 1.0 0.00 0.00 0.00
20260906041726 47 260 1.0 1.0 0.00 0.00 0.00
20260906041227 47 322 0.0 0.0 0.00 0.00 0.00
20260906040729 48 322 0.0 0.0 0.00 0.00 0.00
20260906040230 50 155 0.0 0.0 0.00 0.00 0.00
20260906035228 49 159 1.0 1.0 0.00 0.00 0.00
20260906033729 49 357 1.0 1.0 0.00 0.00 0.00
20260906033227 50 107 0.0 0.0 0.00 0.00 0.00
20260906032727 49 107 0.0 0.0 0.00 0.00 0.00
20260906031727 49 107 0.0 0.0 0.00 0.00 0.00
20260906031229 50 107 0.0 0.0 0.00 0.00 0.00
20260906030727 49 107 0.0 0.0 0.00 0.00 0.00
20260906030229 49 107 0.0 0.0 0.00 0.00 0.00
20260906025730 51 107 0.0 0.0 0.00 0.00 0.00
20260906025232 51 107 0.0 0.0 0.00 0.00 0.00
20260906024733 50 107 0.0 0.0 0.00 0.00 0.00
20260906024231 51 107 0.0 0.0 0.00 0.00 0.00
20260906023732 51 197 0.0 0.0 0.00 0.00 0.00
20260906023233 51 197 0.0 0.0 0.00 0.00 0.00
20260906022735 51 197 0.0 0.0 0.00 0.00 0.00
20260906022236 51 197 0.0 0.0 0.00 0.00 0.00
20260906021735 52 232 0.0 1.0 0.00 0.00 0.00
20260906020737 50 207 4.0 4.0 0.00 0.00 0.00
20260906020239 50 231 5.0 5.0 0.00 0.00 0.00
20260906015740 50 217 4.0 4.0 0.00 0.00 0.00
20260906015235 49 205 3.0 3.0 0.00 0.00 0.00
20260906014736 50 195 4.0 3.0 0.00 0.00 0.00
20260906012239 51 134 0.0 0.0 0.00 0.00 0.00
20260906011740 52 134 0.0 0.0 0.00 0.00 0.00
20260906011241 53 134 0.0 0.0 0.00 0.00 0.00
20260906010742 52 190 1.0 0.0 0.00 0.00 0.00
20260906010240 53 174 2.0 2.0 0.00 0.00 0.00
20260906005741 53 176 2.0 2.0 0.00 0.00 0.00
20260906005242 54 155 1.0 1.0 0.00 0.00 0.00
20260906004743 53 200 2.0 2.0 0.00 0.00 0.00
20260906004245 52 207 3.0 3.0 0.00 0.00 0.00
20260906003742 52 243 3.0 4.0 0.00 0.00 0.00
20260906003244 52 222 4.0 4.0 0.00 0.00 0.00
20260906002745 51 200 4.0 4.0 0.00 0.00 0.00
20260906002246 51 215 3.0 4.0 0.00 0.00 0.00
20260906001748 52 217 2.0 3.0 0.00 0.00 0.00
20260906001246 52 215 3.0 2.0 0.00 0.00 0.00
20260906000748 52 218 4.0 4.0 0.00 0.00 0.00
20260906000249 52 218 4.0 3.0 0.00 0.00 0.00
20260905235751 52 218 5.0 5.0 0.00 0.00 0.00
20260905235252 52 222 5.0 5.0 0.00 0.00 0.00
20260905234750 52 215 4.0 4.0 0.00 0.00 0.00
20260905234251 53 221 2.0 3.0 0.00 0.00 0.00
20260905233752 55 195 2.0 2.0 0.00 0.00 0.00
20260905233254 54 163 2.0 1.0 0.00 0.00 0.00
20260905232755 52 211 2.0 2.0 0.00 0.00 0.00
20260905232253 52 288 2.0 2.0 0.00 0.00 0.00
20260905231754 52 200 0.0 0.0 0.00 0.00 0.00
20260905231256 55 200 0.0 0.0 0.00 0.00 0.00
20260905230755 55 200 0.0 0.0 0.00 0.00 0.00
20260905230257 55 200 0.0 0.0 0.00 0.00 0.00
20260905225754 52 200 0.0 0.0 0.00 0.00 0.00
20260905225256 53 200 0.0 0.0 0.00 0.00 0.00
20260905224757 53 222 3.0 3.0 0.00 0.00 0.00
20260905224259 53 217 4.0 4.0 0.00 0.00 0.00
20260905223800 55 193 4.0 5.0 0.00 0.00 0.00
20260905222800 56 207 0.0 0.0 0.00 0.00 0.00
20260905222305 55 197 3.0 2.0 0.00 0.00 0.00
20260905221803 54 225 3.0 4.0 0.00 0.00 0.00
20260905221305 55 225 4.0 4.0 0.00 0.00 0.00
20260905220305 55 219 5.0 5.0 0.00 0.00 0.00
20260905214809 55 193 4.0 3.0 0.00 0.00 0.00
20260905213310 59 150 2.0 1.0 0.00 0.00 0.00
20260905212812 59 139 2.0 2.0 0.00 0.00 0.00
20260905212313 59 111 0.0 1.0 0.00 0.00 0.00
20260905211812 59 194 0.0 0.0 0.00 0.00 0.00
20260905211313 57 218 2.0 2.0 0.00 0.00 0.00
20260905210815 57 233 2.0 1.0 0.00 0.00 0.00
20260905210316 57 225 4.0 3.0 0.00 0.00 0.00
20260905205817 58 217 3.0 4.0 0.00 0.00 0.00
20260905205315 57 228 3.0 3.0 0.00 0.00 0.00
20260905204318 58 150 1.0 0.0 0.00 0.00 0.00
20260905203819 58 160 1.0 1.0 0.00 0.00 0.00
20260905203321 60 197 1.0 1.0 0.00 0.00 0.00
20260905202818 60 256 2.0 1.0 0.00 0.00 0.00
20260905202320 60 283 2.0 3.0 0.00 0.00 0.00
20260905201322 60 300 3.0 2.0 0.00 0.00 0.00
20260905200824 61 297 4.0 4.0 0.00 0.00 0.00
20260905200321 61 309 5.0 7.0 0.00 0.00 0.00
20260905195823 61 312 6.0 5.0 0.00 0.00 0.00
20260905195320 62 319 6.0 5.0 0.00 0.00 0.00
20260905194821 61 315 7.0 6.0 0.00 0.00 0.00
20260905194323 62 312 7.0 7.0 0.00 0.00 0.00
20260905193321 62 315 6.0 6.0 0.00 0.00 0.00
20260905192822 62 323 7.0 6.0 0.00 0.00 0.00
20260905192322 63 312 6.0 7.0 0.00 0.00 0.00
20260905191927 62 321 8.0 8.0 0.00 0.00 0.00
20260905191823 62 321 8.0 8.0 0.00 0.00 0.00
20260905191321 62 326 8.0 8.0 0.00 0.00 0.00
20260905190822 62 316 8.0 8.0 0.00 0.00 0.00
20260905190323 63 316 9.0 9.0 0.00 0.00 0.00
20260905185326 64 316 8.0 7.0 0.00 0.00 0.00
20260905184824 63 297 8.0 9.0 0.00 0.00 0.00
20260905184325 63 288 6.0 6.0 0.00 0.00 0.00
20260905183827 63 288 7.0 7.0 0.00 0.00 0.00
20260905183328 63 297 6.0 8.0 0.00 0.00 0.00
20260905182829 63 285 6.0 6.0 0.00 0.00 0.00
20260905182327 63 285 6.0 7.0 0.00 0.00 0.00
20260905181828 64 311 5.0 5.0 0.00 0.00 0.00
20260905181329 65 294 7.0 7.0 0.00 0.00 0.00
20260905180830 65 297 7.0 8.0 0.00 0.00 0.00
20260905180332 66 284 8.0 7.0 0.00 0.00 0.00
20260905175905 66 290 7.0 8.0 0.00 0.00 0.00
20260905175829 66 290 7.0 8.0 0.00 0.00 0.00
20260905175330 66 287 8.0 8.0 0.00 0.00 0.00
20260905174832 66 285 9.0 7.0 0.00 0.00 0.00
20260905174333 67 262 7.0 7.0 0.00 0.00 0.00
20260905173834 67 297 9.0 7.0 0.00 0.00 0.00
20260905173332 68 287 11.0 10.0 0.00 0.00 0.00
20260905172833 70 308 9.0 8.0 0.00 0.00 0.00
20260905172334 71 307 9.0 8.0 0.00 0.00 0.00
20260905171930 69 300 13.0 10.0 0.00 0.00 0.00
20260905171835 69 300 13.0 10.0 0.00 0.00 0.00
20260905170335 71 314 6.0 8.0 0.00 0.00 0.00
20260905165836 72 302 9.0 8.0 0.00 0.00 0.00
20260905165337 72 300 7.0 7.0 0.00 0.00 0.00
20260905164838 74 267 7.0 8.0 0.00 0.00 0.00
20260905164337 73 271 12.0 10.0 0.00 0.00 0.00
20260905163838 72 264 9.0 8.0 0.00 0.00 0.00
20260905162339 73 277 6.0 6.0 0.00 0.00 0.00
20260905161836 73 259 7.0 8.0 0.00 0.00 0.00